NKS2805 KATL-KFLL

Flight info

Callsign NKS2805
Flight time N/A
Altitude 39000
Route SMLTZ3 WALET ZPLEN TEEKY4
Aircraft A20N/M-SDE2E3FGHIRWXY/LB1

Departure

Time N/A
Airport Hartsfield Jackson Atlanta International Airport (KATL)

Arrival

Time 2026-05-04 00:14
Airport Fort Lauderdale Hollywood International Airport (KFLL)
Time Latitude Longitude Altitude Speed Heading
2026-05-04 00:11 26.06667 -80.28032 2130 ft 189 kts 90°
2026-05-04 00:11 26.06654 -80.26066 1807 ft 187 kts 89°
2026-05-04 00:11 26.06644 -80.24587 1556 ft 186 kts 89°
2026-05-04 00:11 26.06634 -80.23169 1309 ft 177 kts 89°
2026-05-04 00:12 26.06625 -80.21888 1085 ft 162 kts 89°
2026-05-04 00:12 26.06617 -80.20670 894 ft 149 kts 89°
2026-05-04 00:12 26.06611 -80.19541 697 ft 142 kts 88°
2026-05-04 00:12 26.06604 -80.18450 513 ft 143 kts 88°
2026-05-04 00:13 26.06599 -80.17351 320 ft 142 kts 89°
2026-05-04 00:13 26.06591 -80.16218 139 ft 141 kts 88°
2026-05-04 00:13 26.06591 -80.15173 38 ft 132 kts 89°
2026-05-04 00:13 26.06588 -80.14455 46 ft 58 kts 89°
2026-05-04 00:14 26.06658 -80.14230 49 ft 15 kts
2026-05-04 00:14 26.06689 -80.14275 50 ft 5 kts 275°
2026-05-04 00:14 26.06689 -80.14277 50 ft 0 kts 275°
2026-05-04 00:15 26.06690 -80.14290 50 ft 0 kts 271°
2026-05-04 00:16 26.06690 -80.14299 50 ft 4 kts 272°
2026-05-04 00:16 26.06692 -80.14356 48 ft 10 kts 272°
2026-05-04 00:16 26.06693 -80.14448 45 ft 13 kts 270°
2026-05-04 00:17 26.06694 -80.14518 43 ft 14 kts 270°
2026-05-04 00:17 26.06693 -80.14671 41 ft 15 kts 270°
2026-05-04 00:17 26.06692 -80.14786 40 ft 14 kts 270°
2026-05-04 00:17 26.06694 -80.14895 40 ft 14 kts 271°
2026-05-04 00:18 26.06695 -80.15004 38 ft 14 kts 270°
2026-05-04 00:18 26.06695 -80.15078 37 ft 14 kts 269°
2026-05-04 00:18 26.06754 -80.15133 35 ft 12 kts 357°
2026-05-04 00:18 26.06840 -80.15135 34 ft 12 kts
2026-05-04 00:19 26.06922 -80.15130 32 ft 13 kts
2026-05-04 00:19 26.07014 -80.15129 28 ft 14 kts 359°
2026-05-04 00:19 26.07101 -80.15069 25 ft 14 kts 45°
2026-05-04 00:19 26.07166 -80.14991 22 ft 14 kts 60°
2026-05-04 00:20 26.07139 -80.14911 24 ft 10 kts 121°
2026-05-04 00:20 26.07155 -80.14860 24 ft 6 kts 31°
2026-05-04 00:20 26.07204 -80.14853 21 ft 8 kts
2026-05-04 00:20 26.07263 -80.14853 19 ft 9 kts
2026-05-04 00:21 26.07334 -80.14853 17 ft 11 kts 360°
2026-05-04 00:21 26.07410 -80.14846 15 ft 12 kts 23°
2026-05-04 00:21 26.07471 -80.14778 17 ft 9 kts 60°
2026-05-04 00:21 26.07474 -80.14725 17 ft 7 kts 101°
2026-05-04 00:22 26.07456 -80.14679 20 ft 8 kts 119°
2026-05-04 00:22 26.07412 -80.14580 20 ft 15 kts 112°
2026-05-04 00:22 26.07374 -80.14532 19 ft 9 kts 181°
2026-05-04 00:22 26.07330 -80.14560 19 ft 0 kts 211°
2026-05-04 00:23 26.07323 -80.14565 19 ft 0 kts 211°
2026-05-04 00:23 26.07322 -80.14566 19 ft 0 kts 211°